TimeEDT,TemperatureF,Dew PointF,Humidity,Sea Level PressureIn,VisibilityMPH,Wind Direction,Wind SpeedMPH,Gust SpeedMPH,PrecipitationIn,Events,Conditions,WindDirDegrees,DateUTC
12:51 AM,57.9,55.9,93,30.35,10.0,Calm,Calm,-,N/A,,Partly Cloudy,0,2013-08-26 04:51:00
1:51 AM,55.9,55.0,97,30.33,10.0,Calm,Calm,-,N/A,,Clear,0,2013-08-26 05:51:00
1:59 AM,55.4,53.6,94,30.34,9.0,Calm,Calm,-,N/A,,Scattered Clouds,0,2013-08-26 05:59:00
2:07 AM,57.2,55.4,94,30.34,2.0,Calm,Calm,-,N/A,,Mostly Cloudy,0,2013-08-26 06:07:00
2:10 AM,57.2,55.4,94,30.34,0.8,Calm,Calm,-,N/A,,Mist,0,2013-08-26 06:10:00
2:37 AM,55.4,53.6,94,30.34,1.2,Calm,Calm,-,N/A,,Overcast,0,2013-08-26 06:37:00
2:51 AM,55.9,54.0,93,30.33,1.0,Calm,Calm,-,N/A,,Mist,0,2013-08-26 06:51:00
2:58 AM,55.4,53.6,94,30.33,0.8,Calm,Calm,-,N/A,,Mist,0,2013-08-26 06:58:00
3:05 AM,55.4,53.6,94,30.33,1.8,Calm,Calm,-,N/A,,Mostly Cloudy,0,2013-08-26 07:05:00
3:08 AM,55.4,53.6,94,30.33,3.0,Calm,Calm,-,N/A,,Mostly Cloudy,0,2013-08-26 07:08:00
3:19 AM,55.4,53.6,94,30.34,10.0,Calm,Calm,-,N/A,,Scattered Clouds,0,2013-08-26 07:19:00
3:31 AM,55.4,53.6,94,30.33,1.8,Calm,Calm,-,N/A,,Scattered Clouds,0,2013-08-26 07:31:00
3:40 AM,55.4,53.6,94,30.33,1.5,Calm,Calm,-,N/A,,Mostly Cloudy,0,2013-08-26 07:40:00
3:46 AM,55.4,53.6,94,30.33,3.0,Calm,Calm,-,N/A,,Mostly Cloudy,0,2013-08-26 07:46:00
3:51 AM,54.0,53.1,97,30.32,9.0,Calm,Calm,-,N/A,,Mostly Cloudy,0,2013-08-26 07:51:00
4:03 AM,53.6,51.8,94,30.33,4.0,Calm,Calm,-,N/A,,Scattered Clouds,0,2013-08-26 08:03:00
4:29 AM,53.6,51.8,94,30.33,1.8,Calm,Calm,-,N/A,,Partly Cloudy,0,2013-08-26 08:29:00
4:33 AM,53.6,53.6,100,30.33,0.8,Calm,Calm,-,N/A,,Mist,0,2013-08-26 08:33:00
4:51 AM,55.0,53.1,93,30.31,0.8,Calm,Calm,-,N/A,,Mist,0,2013-08-26 08:51:00
5:04 AM,53.6,51.8,94,30.32,1.2,Calm,Calm,-,N/A,,Overcast,0,2013-08-26 09:04:00
5:14 AM,53.6,51.8,94,30.32,2.5,Calm,Calm,-,N/A,,Overcast,0,2013-08-26 09:14:00
5:29 AM,53.6,51.8,94,30.31,9.0,Calm,Calm,-,N/A,,Scattered Clouds,0,2013-08-26 09:29:00
5:51 AM,53.1,51.1,93,30.30,7.0,Calm,Calm,-,N/A,,Clear,0,2013-08-26 09:51:00
6:51 AM,53.1,51.1,93,30.32,4.0,Calm,Calm,-,N/A,,Scattered Clouds,0,2013-08-26 10:51:00
7:27 AM,53.6,51.8,94,30.34,1.5,Calm,Calm,-,N/A,,Clear,0,2013-08-26 11:27:00
7:36 AM,53.6,51.8,94,30.34,4.0,Calm,Calm,-,N/A,,Clear,0,2013-08-26 11:36:00
7:51 AM,55.9,54.0,93,30.35,10.0,Calm,Calm,-,N/A,,Clear,0,2013-08-26 11:51:00
8:51 AM,61.0,55.9,83,30.34,10.0,Calm,Calm,-,N/A,,Clear,0,2013-08-26 12:51:00
9:51 AM,66.9,57.9,73,30.33,10.0,Calm,Calm,-,N/A,,Clear,0,2013-08-26 13:51:00
10:51 AM,72.0,57.0,59,30.32,10.0,Calm,Calm,-,N/A,,Clear,0,2013-08-26 14:51:00
11:51 AM,75.9,57.9,54,30.30,10.0,Calm,Calm,-,N/A,,Clear,0,2013-08-26 15:51:00
12:51 PM,77.0,59.0,54,30.29,10.0,WNW,8.1,-,N/A,,Scattered Clouds,300,2013-08-26 16:51:00
1:51 PM,79.0,59.0,50,30.26,10.0,Calm,Calm,-,N/A,,Partly Cloudy,0,2013-08-26 17:51:00
2:51 PM,79.0,57.0,47,30.23,10.0,NW,4.6,-,N/A,,Clear,310,2013-08-26 18:51:00
3:51 PM,80.1,57.9,47,30.20,10.0,West,4.6,-,N/A,,Partly Cloudy,260,2013-08-26 19:51:00
4:51 PM,79.0,59.0,50,30.18,10.0,WSW,6.9,-,N/A,,Clear,240,2013-08-26 20:51:00
5:51 PM,78.1,59.0,52,30.17,10.0,West,6.9,-,N/A,,Clear,270,2013-08-26 21:51:00
6:51 PM,75.9,60.1,58,30.16,10.0,Variable,4.6,-,N/A,,Clear,0,2013-08-26 22:51:00
7:51 PM,69.1,61.0,75,30.17,10.0,Calm,Calm,-,N/A,,Clear,0,2013-08-26 23:51:00
8:51 PM,66.0,61.0,84,30.18,10.0,Calm,Calm,-,N/A,,Clear,0,2013-08-27 00:51:00
9:51 PM,63.0,60.1,90,30.19,10.0,Calm,Calm,-,N/A,,Clear,0,2013-08-27 01:51:00
10:51 PM,62.1,59.0,90,30.17,10.0,Calm,Calm,-,N/A,,Mostly Cloudy,0,2013-08-27 02:51:00
11:51 PM,64.9,62.1,90,30.15,10.0,Calm,Calm,-,N/A,,Overcast,0,2013-08-27 03:51:00